• In Uzbekistan
  • List of Countries
  • For 7 days
  • Water Temperature
  • Satellite Maps
  • Weather Map
  • Weather Widgets
  • user-avatar
    Login

    Hourly Weather Mochudi

    Today, 17 June, Monday

    Time Temperature Precipitation Wind Pressure Humidity
    00:00 +11°C° 0 mm 0 mps 685 mmHg 41%
    01:00 +11°C° 0 mm 1 mps 685 mmHg 43%
    02:00 +11°C° 0 mm 1 mps 686 mmHg 45%
    03:00 +10°C° 0 mm 1 mps 685 mmHg 47%
    04:00 +9°C° 0 mm 1 mps 685 mmHg 49%
    05:00 +8°C° 0 mm 1 mps 685 mmHg 51%
    06:00 +9°C° 0 mm 1 mps 686 mmHg 49%
    07:00 +9°C° 0 mm 0 mps 687 mmHg 47%
    08:00 +11°C° 0 mm 1 mps 688 mmHg 41%
    09:00 +13°C° 0 mm 1 mps 688 mmHg 37%
    10:00 +16°C° 0 mm 2 mps 688 mmHg 33%
    11:00 +19°C° 0 mm 2 mps 688 mmHg 29%
    12:00 +20°C° 0 mm 2 mps 688 mmHg 25%
    13:00 +23°C° 0 mm 2 mps 687 mmHg 21%
    14:00 +24°C° 0 mm 2 mps 687 mmHg 17%
    15:00 +23°C° 0 mm 2 mps 687 mmHg 18%
    16:00 +21°C° 0 mm 2 mps 686 mmHg 19%
    17:00 +22°C° 0 mm 1 mps 686 mmHg 19%
    18:00 +20°C° 0 mm 1 mps 686 mmHg 23%
    19:00 +16°C° 0 mm 1 mps 686 mmHg 26%
    20:00 +14°C° 0 mm 1 mps 686 mmHg 30%
    21:00 +14°C° 0 mm 1 mps 686 mmHg 31%
    22:00 +13°C° 0 mm 1 mps 686 mmHg 33%
    23:00 +12°C° 0 mm 1 mps 686 mmHg 35%

    Tomorrow, 18 June, Tuesday

    Time Temperature Precipitation Wind Pressure Humidity
    00:00 +12°C° 0 mm 1 mps 686 mmHg 36%
    01:00 +11°C° 0 mm 1 mps 685 mmHg 36%
    02:00 +11°C° 0 mm 1 mps 685 mmHg 37%
    03:00 +11°C° 0 mm 1 mps 685 mmHg 38%
    04:00 +10°C° 0 mm 1 mps 685 mmHg 38%
    05:00 +10°C° 0 mm 1 mps 685 mmHg 39%
    06:00 +10°C° 0 mm 1 mps 685 mmHg 37%
    07:00 +11°C° 0 mm 1 mps 686 mmHg 36%
    08:00 +11°C° 0 mm 1 mps 686 mmHg 34%
    09:00 +14°C° 0 mm 1 mps 687 mmHg 28%
    10:00 +18°C° 0 mm 2 mps 688 mmHg 22%
    11:00 +21°C° 0 mm 2 mps 688 mmHg 16%
    12:00 +23°C° 0 mm 2 mps 688 mmHg 15%
    13:00 +24°C° 0 mm 2 mps 687 mmHg 13%
    14:00 +25°C° 0 mm 2 mps 687 mmHg 12%
    15:00 +24°C° 0 mm 2 mps 686 mmHg 13%
    16:00 +23°C° 0 mm 1 mps 686 mmHg 14%
    17:00 +22°C° 0 mm 1 mps 685 mmHg 15%
    18:00 +20°C° 0 mm 1 mps 685 mmHg 17%
    19:00 +16°C° 0 mm 0 mps 685 mmHg 19%
    20:00 +14°C° 0 mm 0 mps 685 mmHg 21%
    21:00 +13°C° 0 mm 0 mps 685 mmHg 22%
    22:00 +13°C° 0 mm 1 mps 686 mmHg 23%
    23:00 +13°C° 0 mm 1 mps 686 mmHg 23%

    Day after tomorrow, 19 June, Wednesday

    Time Temperature Precipitation Wind Pressure Humidity
    00:00 +12°C° 0 mm 1 mps 686 mmHg 25%
    01:00 +10°C° 0 mm 2 mps 686 mmHg 27%
    02:00 +9°C° 0 mm 2 mps 686 mmHg 29%
    03:00 +9°C° 0 mm 2 mps 686 mmHg 33%
    04:00 +8°C° 0 mm 2 mps 686 mmHg 38%
    05:00 +8°C° 0 mm 1 mps 686 mmHg 43%
    06:00 +9°C° 0 mm 1 mps 687 mmHg 43%
    07:00 +9°C° 0 mm 1 mps 687 mmHg 44%
    08:00 +10°C° 0 mm 1 mps 688 mmHg 44%
    09:00 +13°C° 0 mm 2 mps 689 mmHg 38%
    10:00 +16°C° 0 mm 3 mps 689 mmHg 32%
    11:00 +19°C° 0 mm 4 mps 690 mmHg 25%
    12:00 +21°C° 0 mm 4 mps 689 mmHg 22%
    13:00 +22°C° 0 mm 4 mps 689 mmHg 19%
    14:00 +23°C° 0 mm 4 mps 688 mmHg 16%
    15:00 +22°C° 0 mm 3 mps 688 mmHg 17%
    16:00 +23°C° 0 mm 2 mps 687 mmHg 19%
    17:00 +21°C° 0 mm 2 mps 687 mmHg 20%
    18:00 +19°C° 0 mm 1 mps 687 mmHg 23%
    19:00 +16°C° 0 mm 1 mps 687 mmHg 26%
    20:00 +12°C° 0 mm 0 mps 687 mmHg 29%
    21:00 +12°C° 0 mm 0 mps 687 mmHg 29%
    22:00 +11°C° 0 mm 0 mps 687 mmHg 30%
    23:00 +11°C° 0 mm 0 mps 687 mmHg 30%

    20 June, Thursday

    Time Temperature Precipitation Wind Pressure Humidity
    00:00 +10°C° 0 mm 0 mps 687 mmHg 31%
    01:00 +9°C° 0 mm 0 mps 687 mmHg 33%
    02:00 +8°C° 0 mm 0 mps 686 mmHg 34%
    03:00 +8°C° 0 mm 0 mps 686 mmHg 35%
    04:00 +7°C° 0 mm 0 mps 686 mmHg 37%
    05:00 +8°C° 0 mm 1 mps 686 mmHg 39%
    06:00 +9°C° 0 mm 1 mps 686 mmHg 38%
    07:00 +9°C° 0 mm 1 mps 687 mmHg 38%
    08:00 +10°C° 0 mm 1 mps 687 mmHg 37%
    09:00 +13°C° 0 mm 1 mps 688 mmHg 34%
    10:00 +16°C° 0 mm 1 mps 688 mmHg 31%
    11:00 +21°C° 0 mm 1 mps 689 mmHg 29%
    12:00 +22°C° 0 mm 1 mps 688 mmHg 25%
    13:00 +23°C° 0 mm 2 mps 687 mmHg 21%
    14:00 +24°C° 0 mm 2 mps 687 mmHg 18%
    15:00 +24°C° 0 mm 2 mps 686 mmHg 18%
    16:00 +23°C° 0 mm 1 mps 686 mmHg 19%
    17:00 +22°C° 0 mm 1 mps 686 mmHg 20%
    18:00 +20°C° 0 mm 1 mps 686 mmHg 23%
    19:00 +16°C° 0 mm 1 mps 686 mmHg 27%
    20:00 +13°C° 0 mm 0 mps 685 mmHg 30%
    21:00 +12°C° 0 mm 0 mps 685 mmHg 32%
    22:00 +12°C° 0 mm 0 mps 685 mmHg 33%
    23:00 +11°C° 0 mm 0 mps 685 mmHg 35%

    21 June, Friday

    Time Temperature Precipitation Wind Pressure Humidity
    00:00 +10°C° 0 mm 0 mps 685 mmHg 36%
    01:00 +11°C° 0 mm 1 mps 685 mmHg 37%
    02:00 +10°C° 0 mm 1 mps 685 mmHg 39%
    03:00 +10°C° 0 mm 1 mps 685 mmHg 42%
    04:00 +9°C° 0 mm 1 mps 685 mmHg 46%
    05:00 +8°C° 0 mm 1 mps 685 mmHg 50%
    06:00 +9°C° 0 mm 1 mps 686 mmHg 50%
    07:00 +9°C° 0 mm 1 mps 686 mmHg 50%
    08:00 +9°C° 0 mm 0 mps 687 mmHg 50%
    09:00 +13°C° 0 mm 1 mps 687 mmHg 44%
    10:00 +16°C° 0 mm 1 mps 688 mmHg 39%
    11:00 +20°C° 0 mm 1 mps 688 mmHg 33%
    12:00 +22°C° 0 mm 1 mps 688 mmHg 29%
    13:00 +22°C° 0 mm 0 mps 687 mmHg 25%
    14:00 +23°C° 0 mm 0 mps 687 mmHg 20%
    15:00 +22°C° 0 mm 0 mps 686 mmHg 21%
    16:00 +21°C° 0 mm 0 mps 685 mmHg 22%
    17:00 +22°C° 0 mm 1 mps 684 mmHg 23%
    18:00 +20°C° 0 mm 1 mps 684 mmHg 26%
    19:00 +18°C° 0 mm 1 mps 684 mmHg 29%
    20:00 +15°C° 0 mm 1 mps 684 mmHg 33%
    21:00 +14°C° 0 mm 1 mps 684 mmHg 34%
    22:00 +13°C° 0 mm 1 mps 684 mmHg 35%
    23:00 +13°C° 0 mm 1 mps 684 mmHg 36%

    22 June, Saturday

    Time Temperature Precipitation Wind Pressure Humidity
    00:00 +12°C° 0 mm 1 mps 684 mmHg 36%
    01:00 +12°C° 0 mm 1 mps 683 mmHg 36%
    02:00 +11°C° 0 mm 1 mps 683 mmHg 36%
    03:00 +11°C° 0 mm 1 mps 683 mmHg 35%
    04:00 +9°C° 0 mm 2 mps 683 mmHg 35%
    05:00 +9°C° 0 mm 2 mps 683 mmHg 34%
    06:00 +9°C° 0 mm 2 mps 683 mmHg 34%
    07:00 +10°C° 0 mm 2 mps 684 mmHg 34%
    08:00 +10°C° 0 mm 2 mps 684 mmHg 34%
    09:00 +15°C° 0 mm 2 mps 685 mmHg 28%
    10:00 +18°C° 0 mm 3 mps 686 mmHg 23%
    11:00 +22°C° 0 mm 3 mps 686 mmHg 18%
    12:00 +24°C° 0 mm 3 mps 686 mmHg 16%
    13:00 +25°C° 0 mm 3 mps 685 mmHg 14%
    14:00 +27°C° 0 mm 3 mps 685 mmHg 12%
    15:00 +26°C° 0 mm 3 mps 685 mmHg 13%
    16:00 +24°C° 0 mm 3 mps 685 mmHg 14%
    17:00 +22°C° 0 mm 3 mps 684 mmHg 14%
    18:00 +20°C° 0 mm 3 mps 685 mmHg 20%
    19:00 +18°C° 0 mm 3 mps 685 mmHg 25%
    20:00 +14°C° 0 mm 4 mps 685 mmHg 30%
    21:00 +13°C° 0 mm 4 mps 685 mmHg 42%
    22:00 +13°C° 0 mm 5 mps 686 mmHg 53%
    23:00 +12°C° 0 mm 5 mps 686 mmHg 65%
    Show more